Keahole Point, HI

12:39 AM HST on December 14, 2017 (GMT -1000)
Kona International At Keahole

Weather History for PHKO - April, 2015

Change the Weather History Date:

Wednesday, April 8, 2015

  Actual Average Record
Temperature  
Mean Temperature 77 °F -  
Max Temperature 82 °F 80 °F 89 °F (2014)
Min Temperature 72 °F 69 °F 66 °F (1985)
Cooling Degree Days 12    
Growing Degree Days 27 (Base 50)    
Moisture  
Dew Point 62 °F    
Average Humidity 61    
Maximum Humidity 71    
Minimum Humidity 50    
Precipitation  
Precipitation 0.00 in - - ()
Sea Level Pressure  
Sea Level Pressure 30.00 in    
Wind  
Wind Speed 7 mph (ESE)    
Max Wind Speed 18 mph    
Max Gust Speed -    
Visibility 10 miles    
Events      
Averages and records for this station are not official NWS values.
T = Trace of Precipitation, MM = Missing Value Source: NWS Daily Summary

Daily Weather History Graph

Daily Weather History Graph

Search for Another Location

Airport or City:

Trip Planner

Search our weather history database for the weather conditions in past years. The results will help you decide how hot, cold, wet, or windy it might be!

Date:

Astronomy

Apr. 08, 2015 Rise Set
Actual Time 6:12 AM HST 6:40 PM HST
Civil Twilight 5:49 AM HST 7:02 PM HST
Nautical Twilight 5:23 AM HST 7:28 PM HST
Astronomical Twilight 4:57 AM HST 7:54 PM HST
Moon 10:37 PM HST (4/8) 9:16 AM HST (4/8)
Length of Visible Light 13h 12m
Length of Day
12h 28m
Waning Gibbous, 82% of the Moon is Illuminated
Apr 8
Waning Gibbous
Apr 11
Last Quarter
Apr 18
New
Apr 25
First Quarter
May 3
Full

Hourly Weather History & Observations

Time (HST) Temp. Heat Index Dew Point Humidity Pressure Visibility Wind Dir Wind Speed Gust Speed Precip Events Conditions
12:53 AM 72.0 °F - 62.1 °F 71% 29.99 in 10.0 mi NE 8.1 mph - N/A   Clear
1:53 AM 73.9 °F - 62.1 °F 66% 29.98 in 10.0 mi ENE 8.1 mph - N/A   Scattered Clouds
2:53 AM 73.9 °F - 60.1 °F 62% 29.96 in 10.0 mi North 6.9 mph - N/A   Clear
3:53 AM 73.0 °F - 62.1 °F 68% 29.95 in 10.0 mi ESE 12.7 mph - N/A   Clear
4:53 AM 72.0 °F - 62.1 °F 71% 29.97 in 10.0 mi ENE 8.1 mph - N/A   Clear
5:53 AM 73.0 °F - 57.9 °F 59% 29.98 in 10.0 mi ENE 5.8 mph - N/A   Clear
6:53 AM 72.0 °F - 61.0 °F 68% 29.99 in 10.0 mi East 4.6 mph - N/A   Clear
7:53 AM 78.1 °F - 61.0 °F 56% 30.01 in 10.0 mi South 3.5 mph - N/A   Clear
8:53 AM 79.0 °F - 64.0 °F 60% 30.01 in 10.0 mi South 6.9 mph - N/A   Clear
9:53 AM 80.1 °F 81.9 °F 64.9 °F 60% 30.01 in 10.0 mi SW 8.1 mph - N/A   Clear
10:53 AM 82.0 °F 83.4 °F 64.0 °F 54% 30.02 in 10.0 mi SW 9.2 mph - N/A   Clear
11:53 AM 81.0 °F 82.5 °F 64.0 °F 56% 30.02 in 10.0 mi WSW 8.1 mph - N/A   Overcast
12:53 PM 79.0 °F - 64.0 °F 60% 30.01 in 10.0 mi Calm Calm - N/A   Overcast
1:53 PM 79.0 °F - 64.0 °F 60% 29.99 in 10.0 mi SW 5.8 mph - N/A   Overcast
2:53 PM 79.0 °F - 64.0 °F 60% 29.98 in 10.0 mi SSW 3.5 mph - N/A   Overcast
3:53 PM 79.0 °F - 64.9 °F 62% 29.97 in 10.0 mi SW 5.8 mph - N/A   Overcast
4:53 PM 79.0 °F - 64.9 °F 62% 29.97 in 10.0 mi SSW 3.5 mph - N/A   Overcast
5:53 PM 80.1 °F 81.9 °F 64.9 °F 60% 29.98 in 10.0 mi SSW 6.9 mph - N/A   Overcast
6:53 PM 79.0 °F - 59.0 °F 50% 30.00 in 10.0 mi NE 13.8 mph - 0.00 in   Mostly Cloudy
7:53 PM 77.0 °F - 60.1 °F 56% 30.01 in 10.0 mi ENE 18.4 mph - N/A   Clear
8:53 PM 75.9 °F - 60.1 °F 58% 30.02 in 10.0 mi NE 6.9 mph - N/A   Clear
9:53 PM 75.0 °F - 61.0 °F 62% 30.03 in 10.0 mi NE 4.6 mph - N/A   Clear
10:53 PM 73.9 °F - 61.0 °F 64% 30.04 in 10.0 mi NNE 11.5 mph - N/A   Scattered Clouds
11:53 PM 75.9 °F - 61.0 °F 60% 30.02 in 10.0 mi Calm Calm - N/A   Clear